Regional Weather Roundup
Issued by NWS Little Rock, AR

Home | Current Version | Previous Version | Graphics & Text | Print | Product List | Glossary On
Versions: 1 2 3 4 5 6 7 8 9 10 11 12 13 14 15 16 17 18 19 20 21 22 23 24 25 26 27 28 29 30 31 32 33 34 35 36 37 38 39 40 41 42 43 44 45 46 47 48 49
000
ASUS44 KLZK 260205
RWRLZK

WEATHER ROUNDUP FOR ARKANSAS
NATIONAL WEATHER SERVICE LITTLE ROCK AR
800 PM CST THU DEC 25 2014

NOTE: "FAIR" INDICATES FEW OR NO CLOUDS BELOW 12,000 FEET WITH NO
SIGNIFICANT WEATHER AND/OR OBSTRUCTIONS TO VISIBILITY.

ARZ001-003-010-029-260300-
NORTHWEST ARKANSAS

CITY           SKY/WX    TMP DP  RH WIND       PRES   REMARKS
FAYETTEVILLE   MOCLDY    48  30  49 S9G22     29.92F
FORT SMITH     CLOUDY    51  30  44 SE8       29.97S
HARRISON       CLOUDY    46  30  53 S14G20    29.96R
BENTONVILLE    CLOUDY    48  28  46 S12G18    29.91S
ROGERS         MOCLDY    48  29  47 S15G23    29.91S
SILOAM SPGS    CLOUDY    48  27  43 S14G21    29.91S
HIGHFILL       CLOUDY    48  30  49 S16G28    29.90R
SPRINGDALE     PTCLDY    48  28  46 S12G29    29.93S
$$

ARZ004-005-016-260300-
NORTH CENTRAL ARKANSAS

CITY           SKY/WX    TMP DP  RH WIND       PRES   REMARKS
BATESVILLE     PTCLDY    48  36  61 S14G21    30.06R
FLIPPIN        MOCLDY    48  28  46 S8        29.99R
MTN HOME       MOCLDY    44  30  57 S7        29.98R
$$

ARZ040-041-260300-
WEST CENTRAL ARKANSAS

CITY           SKY/WX    TMP DP  RH WIND       PRES   REMARKS
MENA           PTCLDY    54  34  47 S6        30.01R
MOUNT IDA      CLEAR     52  34  50 VRB6      29.99S
$$

ARZ009-017-025-026-028-260300-
NORTHEAST ARKANSAS

CITY           SKY/WX    TMP DP  RH WIND       PRES   REMARKS
CORNING        FAIR      45  37  76 S14       30.08S
JONESBORO      MOCLDY    44  38  79 S9        30.10S
NEWPORT        PTCLDY    44  39  82 SE14      30.10R
WALNUT RIDGE   PTCLDY    43  36  75 S10       30.06S
BLYTHEVILLE    PTCLDY    44  34  67 S8        30.13R
$$

ARZ022-023-033-042-044-260300-
CENTRAL ARKANSAS

CITY           SKY/WX    TMP DP  RH WIND       PRES   REMARKS
LITTLE ROCK    PTCLDY    46  34  62 S8        30.08R
N LITTLE ROCK  PTCLDY    47  38  70 SE8       30.08R
JACKSONVILLE   CLEAR     47  38  71 SE6       30.08R
SEARCY         CLEAR     46  38  73 S10       30.09S
HOT SPRINGS    CLEAR     51  34  52 S8G17     30.06R
RUSSELLVILLE   PTCLDY    47  33  58 VRB3      30.02S
CLINTON        FAIR      45  36  70 S5        30.06R
$$

ARZ036-260300-
EAST ARKANSAS

CITY           SKY/WX    TMP DP  RH WIND       PRES   REMARKS
WEST MEMPHIS   CLEAR     40  34  79 CALM      30.12S
$$

ARZ050-053-066-070-073-260300-
SOUTHWEST ARKANSAS

CITY           SKY/WX    TMP DP  RH WIND       PRES   REMARKS
ARKADELPHIA    FAIR      45  38  76 S6        30.08R
CAMDEN         CLEAR     46  34  61 MISG      30.09R
TEXARKANA      CLEAR     50  36  58 SE9       30.05R
EL DORADO      CLEAR     48  36  63 SE6       30.09S
DE QUEEN       CLEAR     49  34  56 SE5       30.02R
$$

ARZ056-057-069-260300-
SOUTHEAST ARKANSAS

CITY           SKY/WX    TMP DP  RH WIND       PRES   REMARKS
PINE BLUFF     CLEAR     47  36  65 S13       30.10S
STUTTGART      CLEAR     46  37  71 SE10      30.11R
MONTICELLO     CLEAR     46  36  68 S3        30.12S

$$





USA.gov is the U.S. government's official web portal to all federal, state and local government web resources and services.